Погода в Фукуоке

Вьетнам     10°16′28″N   103°59′27″E
темп.,
°C
ветер,
м/с
пор.,
м/с
влажн.,
%
обл.,
%
осадки,
мм/ч
давл.,
гПа
погр.,
м
14 мая, пт
пт1401:00+28ююз228099 2.3 1006268
04:00+28ююз2378100 0.0 1006373
07:00+29юз1274100 0.0 1007398
10:00+30ююв2269100 1.1 1008906
13:00+31ю226698 1.7 1006973
16:00+31зюз21639 0.6 1004865
19:00+28зюз227947 3.4 100578
22:00+28зюз237878 0.7 1008228
15 мая, сб
сб1501:00+28з1279100 1.2 1007283
04:00+27зсз1183100 5.2 1006151
07:00+28вюв1181100 8.3 1008114
10:00+31юв2366100 0.9 1009945
13:00+32ююв336361 1.5 10061135
16:00+31юз2261100 0.4 1004733
19:00+28юз2375100 2.0 1006198
22:00+29зюз227625 0.1 1007270
16 мая, вс
вс1601:00+27юз118121 5.3 100742
04:00+27ю128071 1.3 1006184
07:00+28ююв227747 3.8 1008279
10:00+31юв126368 0.0 1009933
13:00+32ююв226120 0.0 10071193
16:00+31юз32661 0.4 1005771
19:00+29з347751 0.9 1006280
22:00+29з2378100 0.0 1008326
17 мая, пн
пн1701:00+28з248018 0.0 1007351
04:00+28з128125 0.0 1006284
07:00+29сз017849 0.0 1007285
10:00+32юз216618 0.0 1008951
13:00+31юз337254 2.3 1007866
16:00+30зюз347350 3.9 1005681
19:00+28зюз358256 7.7 1006286
22:00+28юз348160 1.0 1008274
18 мая, вт
вт1801:00+28зюз248284 1.0 1007303
04:00+27зюз238499 1.8 1006326
07:00+26вюв2390100 14.8 1008147
10:00+26ююв3490100 3.0 1009294
13:00+27ю1183100 3.0 1008337
16:00+28ююз0177100 0.0 1006363
19:00+27зюз018116 0.0 1007214
22:00+27ююз128016 0.0 1009244